Regional Weather Roundup
Issued by NWS

Home | Current Version | Previous Version | Text Only | Print | Product List | Glossary Off
Versions: 1 2 3 4 5 6 7 8 9 10 11 12 13 14 15 16 17 18 19 20 21 22 23 24 25 26 27 28 29 30 31 32 33 34 35 36 37 38 39 40 41 42 43 44 45 46 47 48 49 50

000
ASUS43 KMPX 240901
RWRMN
WEATHER ROUNDUP FOR MINNESOTA
NATIONAL WEATHER SERVICE TWIN CITIES/CHANHASSEN MN
400 AM CDT SAT JUN 24 2017


NOTE: "FAIR" INDICATES FEW OR NO CLOUDS BELOW 12,000 FEET WITH NO
SIGNIFICANT WEATHER AND/OR OBSTRUCTIONS TO VISIBILITY. N/A MEANS
CURRENT SKY AND/OR WEATHER CONDITIONS ARE NOT AVAILABLE.

MNZ060>063-068>070-241000-
   Twin Cities Metro

CITY           SKY/WX    TMP DP  RH WIND       PRES   REMARKS
TWIN CITIES    PTCLDY    57  46  66 W9        29.95S
ST PAUL        CLEAR     57  48  72 NW9       29.95S
CRYSTAL        PTCLDY    55  44  66 W6        29.94S
BLAINE         CLEAR     55  46  71 W7        29.95S
LAKEVILLE        N/A     52  46  82 W7        29.96S
EDEN PRAIRIE   CLEAR     56  46  69 W6        29.95S
SOUTH ST PAUL  CLEAR     58  46  65 W8        29.95S
LAKE ELMO      MOCLDY    54  48  82 NW6       29.96S
$$
MNZ001>005-007-008-013>017-022>024-027-028-241000-
   Northwest Minnesota

CITY           SKY/WX    TMP DP  RH WIND       PRES   REMARKS
BEMIDJI        PTCLDY    46  41  82 W8        29.93S
HALLOCK        CLOUDY    52  45  76 W7        29.93S
ROSEAU           N/A     50  45  81 W6        29.90S
WARROAD        CLOUDY    50  46  87 W6        29.90S
CROOKSTON      PTCLDY    45  41  87 W8        29.96F
FOSSTON        CLOUDY    50  41  71 W9        29.95S
DETROIT LAKES  CLEAR     50  39  66 W10       29.99S
MOORHEAD       CLEAR     46  39  76 W8        30.00S
PARK RAPIDS    PTCLDY    45  38  76 W7        29.95S
MAHNOMEN       PTSUNNY   47  41  78 W9        29.96F
$$
MNZ006-009>011-018-025>026-241000-
   North Central Minnesota

CITY           SKY/WX    TMP DP  RH WIND       PRES   REMARKS
BAUDETTE       CLOUDY    50  49  96 W7        29.87S
FLAG ISLAND    CLOUDY    52  48  87 W16       29.86S
INTL FALLS     CLOUDY    52  49  89 W6        29.85S
WASKISH        LGT RAIN  52  46  82 W13G18    29.90S
BIG FORK       CLOUDY    54  46  76 NW3       29.89R
LONGVILLE      PTCLDY    46  43  87 W5        29.92S
GRAND RAPIDS   CLOUDY    51  46  83 W7        29.91S
CRANE LAKE     CLOUDY    52  48  87 W6        29.86S
ORR            CLOUDY    52  46  82 W7        29.84S
COOK           CLOUDY    52  48  87 W10       29.87R
WALKER         CLOUDY    47  41  79 W7        29.93S
$$
MNZ012-019>021-037-241000-
   Northeast Minnesota

CITY           SKY/WX    TMP DP  RH WIND       PRES   REMARKS
DULUTH         MOCLDY    52  48  86 NW12G20   29.86R
ELY            CLOUDY    52  50  93 W7        29.84R
HIBBING        CLOUDY    52  46  80 NW7       29.87S
EVELETH        CLOUDY    53  44  72 W7        29.87S
DULUTH HARBOR  CLOUDY    57  52  82 SW7       29.87S
TWO HARBORS    CLOUDY    57  52  82 W6        29.82R
SILVER BAY     CLOUDY    55  52  88 CALM      29.82R
GRAND MARAIS     N/A     60  52  74 NW10G18   29.76R
G MARAIS ARPRT CLOUDY    54  46  76 NW5       29.81R
$$
MNZ029>031-032-039>041-046>048-054>057-064-241000-
   West Central Minnesota

CITY           SKY/WX    TMP DP  RH WIND       PRES   REMARKS
FERGUS FALLS   CLEAR     45  39  81 W7        30.00S
WHEATON        CLEAR     50  41  71 W5        30.04F
MORRIS         CLEAR     48  43  81 W8        30.01S
ALEXANDRIA     CLEAR     50  41  71 W10       30.01S
ELBOW LAKE     FAIR      45  41  86 NW6       30.01S
WADENA         PTCLDY    46  39  76 W6        29.97S
GLENWOOD       CLEAR     46  39  76 W8        30.01S
APPLETON       CLEAR     48  43  81 W7        30.03S
BENSON         CLEAR     48  43  81 NW8       30.04S
ORTONVILLE     CLEAR     52  41  66 NW7       30.04S
MADISON        CLEAR     50  45  81 W6        30.05S
WILLMAR        FAIR      50  45  81 W8        30.03S
$$
MNZ033>034-036-042>043-049>051-058-059-241000-
   Central Minnesota

CITY           SKY/WX    TMP DP  RH WIND       PRES   REMARKS
ST CLOUD       PTCLDY    50  43  77 NW8       29.96S
SAUK CENTRE    FAIR      49  43  79 W7        29.99S
PAYNESVILLE    PTCLDY    49  43  80 W8        30.00R
AITKIN         CLOUDY    48  45  87 W3        29.91S
PINE RIVER     CLEAR     46  41  81 W3        29.97S
BRAINERD       CLEAR     52  41  66 W8        29.94F
STAPLES        CLOUDY    48  39  71 W10       29.96S
LONG PRAIRIE   FAIR      50  43  76 SW5       29.98S
LITTLE FALLS   CLEAR     50  37  62 W6        29.96S
LITCHFIELD     CLEAR     55  45  67 W8        30.00S
BUFFALO        CLEAR     54  46  73 W6        29.98S
MAPLE LAKE     CLEAR     53  47  79 W3        29.98S
HUTCHINSON     CLEAR     51  46  82 W9        30.01S
$$
MNZ037-044-045-052-053-241000-
   East Central Minnesota

CITY           SKY/WX    TMP DP  RH WIND       PRES   REMARKS
PRINCETON      CLEAR     48  45  87 CALM      29.96R
MORA           CLEAR     50  46  87 NW5       29.95S
CAMBRIDGE      CLEAR     54  45  71 W5        29.93S
RUSH CITY      MOCLDY    50  46  87 CALM      29.93S
MOOSE LAKE     MOCLDY    50  45  81 W3        29.89S
HINCKLEY       FAIR      48  46  93 CALM      29.92S
CLOQUET        CLOUDY    54  45  71 W7        29.88R
MCGREGOR       CLEAR     50  46  87 W3        29.91F
$$
MNZ071>073-080-081-089-090-097-098-241000-
   Southwest Minnesota

CITY           SKY/WX    TMP DP  RH WIND       PRES   REMARKS
MONTEVIDEO     CLEAR     48  43  81 NW3       30.04S
GRANITE FALLS  CLEAR     51  45  80 W8        30.06S
CANBY          CLEAR     50  42  74 CALM      30.07S
MARSHALL       CLEAR     50  42  74 W9        30.06S
REDWOOD FALLS  CLEAR     50  43  77 W9        30.03S
OLIVIA         CLEAR     50  45  81 W8        30.02S
PIPESTONE      CLEAR     46  41  81 W3        30.09S
WINDOM         CLEAR     46  43  87 W7        30.06S
WORTHINGTON    CLEAR     48  42  80 W9        30.09S
JACKSON        CLEAR     46  43  87 CALM      30.07S
TRACY          CLEAR     52  43  72 W5        30.07R
SLAYTON        CLEAR     49  33  54 W6        30.09S
$$
MNZ065>067-074>077-082>085-091>093-241000-
   South Central Minnesota

CITY           SKY/WX    TMP DP  RH WIND       PRES   REMARKS
MANKATO        CLEAR     54  43  66 W14       30.01R
NEW ULM        CLEAR     50  43  76 W12       30.02S
ST JAMES       CLEAR     50  45  81 W9        30.05R
FAIRMONT       CLEAR     53  43  68 NW10      30.05S
GLENCOE        CLEAR     53  47  81 W7        29.99S
FARIBAULT      CLEAR     54  46  76 W10       29.98S
OWATONNA       PTCLDY    54  46  76 W8        29.99R
WASECA         PTCLDY    52  46  82 W8        30.01S
ALBERT LEA     PTCLDY    54  46  76 W8        30.01R
$$
MNZ078>079-086>088-094>096-241000-
   Southeast Minnesota

CITY           SKY/WX    TMP DP  RH WIND       PRES   REMARKS
ROCHESTER      CLEAR     51  49  92 W8        29.98R
RED WING       PTCLDY    55  46  71 W6        29.94R
STANTON        PTCLDY    54  48  78 W6        29.95S
DODGE CENTER   CLEAR     52  46  82 W7        29.98S
WINONA         PTCLDY    59  52  77 NW7       29.94S
AUSTIN         PTCLDY    54  48  82 W8        29.99S
PRESTON        CLEAR     53  47  81 W9        29.98R
$$
ABBREVIATIONS USED IN REMARKS
   TC - TEMPERATURES IN CELSIUS
  WCI - WIND CHILL INDEX
   HX - HEAT INDEX
  VSB - VISIBILITY
$$



USA.gov is the U.S. government's official web portal to all federal, state and local government web resources and services.